Showing default

COSMOS 2406, 28352

Orbit data source: Space-Track

COSMOS 2406, 28352 is a payload satellite owned by GRU (CIS) in LEO that was launched on Thu, 10 Jun 2004 UTC via a ZENIT-2 launch vehicle from the Tyuratam Missile And Space Complex (TTMTR). Payload-class satellites include a variety of spacecraft equipped with specific instruments for various scientific and technological missions. These include communications satellites like Starlink; space stations such as the ISS; scientific satellites like the Hubble; Earth observation satellites from companies like Planet Labs, Umbra, and HawkEye 360; GPS; miniature CubeSats for education and research; and military/defense satellites.

Loading next visibility...
Identifier
28352, 2004-021A
Orbit
LEO
Country
Flag of CISCIS
Related business
Manufacturer
Yuzhnoe
Mission
Defense Sigint
Bus & Motor
TSELINA-2, Unknown motor
Mass
3,250 kg wet, 3,250 kg dry
Launch date (UTC)
2004-06-10 (22 years ago)
Launch vehicle
ZENIT-2
Launch site
Tyuratam Missile And Space Complex (TTMTR)
Object type
Payload
Rocket body
Debris
Shape & HBR
Cyl + 2 Pan + 1 Ant, Unknown HBR
Radar Cross Section
5.596 m², Large (>1 m²)

Expand to show TLE details & history
Last TLE update: 10 hours ago

TLE from 10 hours ago
0 COSMOS 2406
1 28352U 04021A   26119.23837062 -.00000103  00000-0 -30340-4 0  9997
2 28352  70.9963 201.7996 0011282 221.5421 138.4844 14.12133566127803
Epoch: 2026-04-29T05:43Z
TLE epoch observation values (Epoch: 2026-04-29T05:43:15.221Z)
Latitude
Longitude
-101.21602°
Altitude
860.589 km
Speed
7.419 km/s
True Right ascension
13h 27m 11s
True Declination
0° 00' 00"
Sunlit
Object was in full shadow at epoch
Visualization orbit readout
Latitude
Unknown
Longitude
Unknown
Altitude
Unknown
Speed
Unknown
Apparent Right ascension
Unknown
Apparent Declination
Unknown
Sunlit
N/A
Visualization observer readout
Local Sidereal Time
23:07:06
Azimuth
Unknown
Elevation
Unknown
Doppler factor
Unknown
Orbital elements
Apogee altitude
858.163 km
Perigee altitude
841.853 km
Semi-major axis
7,228.145 km
Eccentricity
0.00113
Inclination
70.9963°
RAAN
201.7996°
Arg. of periapsis
221.5421°
True anomaly
138.57°
Mean anomaly
138.4844°
Eccentric anomaly
138.52721°
Mean motion
3.53186 °/min
Orbital period
101.93 mins
BSTAR
-0.00003034
Loading maneuver chart data...
Computing Atmospheric mass density...
Loading historical data...
Loading historical data...
Loading historical data...
Loading historical data...
Loading historical data...
Loading historical data...
Loading historical data...

Documentation

Showing up to 5 results
|